DELTA 1 DEB, 21347

Orbit data source: Space-Track

DELTA 1 DEB, 21347 is space debris in SSO originally from a launch on Thu, 12 Jun 1975 UTC launched from the Air Force Western Test Range (AFWTR). Debris objects in space refer to the collection of defunct objects orbiting the Earth. Examples of debris include non-operational satellites, rocket bodies, and fragments generated from explosions, collisions, or faulty payload assembly.

Loading next visibility...
Identifier
21347, 1975-052BR
Orbit
SSO
Country
Flag of USUS
Related business
Manufacturer
Unknown
Mission
Spacecraft
Bus & Motor
Unknown
Mass
Unknown
Launch date (UTC)
1975-06-12 (50 years ago)
Launch vehicle
Unknown
Launch site
Air Force Western Test Range (AFWTR)
Object type
Payload
Rocket body
Debris
Shape & HBR
Unknown shape, 0.1 m
Radar Cross Section
Small (<0.1 m²)

Expand to show TLE details & history
Last TLE update: 17 hours ago

TLE from 17 hours ago
0 DELTA 1 DEB
1 21347U 75052BR  25287.22472721  .00008006  00000-0  11253-1 0  9994
2 21347  99.3994  79.7437 0393821 176.6746 263.7984 13.29808269631852
Epoch: 2025-10-14T05:23Z
TLE epoch observation values (Epoch: 2025-10-14T05:23:36.430Z)
Latitude
73.2686°
Longitude
-57.3966°
Altitude
1,203.492 km
Speed
7.238 km/s
True Right ascension
03h 06m 05s
True Declination
73° 10' 45"
Sunlit
Object was in daylight at epoch
Visualization orbit readout
Latitude
Unknown
Longitude
Unknown
Altitude
Unknown
Speed
Unknown
Apparent Right ascension
Unknown
Apparent Declination
Unknown
Sunlit
N/A
Visualization observer readout
Local Sidereal Time
17:15:02
Azimuth
Unknown
Elevation
Unknown
Doppler factor
Unknown
Orbital elements
Apogee altitude
1,441.062 km
Perigee altitude
848.525 km
Semi-major axis
7,522.931 km
Eccentricity
0.03938
Inclination
99.3994°
RAAN
79.7437°
Arg. of periapsis
176.6746°
True anomaly
259.34019°
Mean anomaly
263.7984°
Eccentric anomaly
261.56637°
Mean motion
3.32631 °/min
Orbital period
108.23 mins
BSTAR
0.011253
Loading maneuver chart data...
Computing Atmospheric mass density...
Loading historical data...
Loading historical data...
Loading historical data...
Loading historical data...
Loading historical data...
Loading historical data...
Loading historical data...

Documentation

Showing up to 5 results
|